GW1000 Weather Reports


Display with metric or nautical units.
time (UTC)temp
F
wind
direction
speed
MPH
gust
MPH
rain 1hr
in
rain 24hr
in
rain mn
in
humidity
%
barometer
mb
20260906214410 78 33 0.0 0.0 0.00 0.00 0.00 80 1009.1
20260906213904 77 50 0.0 0.0 0.00 0.00 0.00 80 1009.1
20260906213359 77 59 0.0 1.0 0.00 0.00 0.00 80 1008.9
20260906212857 77 28 0.0 0.0 0.00 0.00 0.00 80 1009.1
20260906212352 77 20 1.0 1.0 0.00 0.00 0.00 80 1009.2
20260906211851 78 17 1.0 1.0 0.00 0.00 0.00 80 1009.2
20260906211347 77 67 0.0 1.0 0.00 0.00 0.00 80 1009.1
20260906210842 77 29 0.0 1.0 0.00 0.00 0.00 80 1009.0
20260906210337 77 42 0.0 0.0 0.00 0.00 0.00 81 1009.2
20260906205832 77 48 0.0 0.0 0.00 0.00 0.00 80 1009.2
20260906205329 77 49 0.0 0.0 0.00 0.00 0.00 80 1009.1
20260906204824 77 57 0.0 0.0 0.00 0.00 0.00 80 1009.2
20260906204323 77 58 0.0 1.0 0.00 0.00 0.00 80 1009.1
20260906203822 77 50 0.0 0.0 0.00 0.00 0.00 80 1009.2
20260906203318 77 24 0.0 0.0 0.00 0.00 0.00 80 1009.2
20260906202814 78 34 0.0 1.0 0.00 0.00 0.00 80 1009.2
20260906202314 78 35 0.0 0.0 0.00 0.00 0.00 80 1009.2
20260906201808 78 43 0.0 0.0 0.00 0.00 0.00 80 1009.2
20260906201308 78 46 0.0 0.0 0.00 0.00 0.00 80 1009.1
20260906200804 78 24 0.0 1.0 0.00 0.00 0.00 80 1009.1
20260906200300 78 33 0.0 0.0 0.00 0.00 0.00 79 1009.3
20260906195755 78 86 0.0 0.0 0.00 0.00 0.00 80 1009.3
20260906195251 78 31 0.0 1.0 0.00 0.00 0.00 79 1009.4
20260906194747 78 11 0.0 1.0 0.00 0.00 0.00 79 1009.2
20260906194242 78 29 0.0 1.0 0.00 0.00 0.00 79 1009.4
20260906193737 78 354 1.0 1.0 0.00 0.00 0.00 79 1009.3
20260906193232 78 36 0.0 0.0 0.00 0.00 0.00 79 1009.5
20260906192728 78 12 0.0 1.0 0.00 0.00 0.00 78 1009.8
20260906192227 79 74 0.0 1.0 0.00 0.00 0.00 78 1009.7
20260906191721 78 40 0.0 0.0 0.00 0.00 0.00 78 1009.8
20260906191216 79 43 0.0 0.0 0.00 0.00 0.00 78 1010.0
20260906190716 79 39 0.0 0.0 0.00 0.00 0.00 78 1009.8
20260906190210 79 31 0.0 0.0 0.00 0.00 0.00 78 1009.8
20260906185710 79 22 1.0 1.0 0.00 0.00 0.00 78 1009.9
20260906185209 79 6 1.0 1.0 0.00 0.00 0.00 78 1009.7
20260906184709 79 293 2.0 2.0 0.00 0.00 0.00 78 1009.7
20260906184204 79 313 1.0 1.0 0.00 0.00 0.00 78 1009.9
20260906183700 79 329 1.0 2.0 0.00 0.00 0.00 78 1009.7
20260906183156 79 317 1.0 1.0 0.00 0.00 0.00 78 1009.9
20260906182655 79 341 0.0 1.0 0.00 0.00 0.00 77 1009.7
20260906182152 79 36 0.0 0.0 0.00 0.00 0.00 77 1009.8
20260906181647 79 14 0.0 1.0 0.00 0.00 0.00 77 1009.5
20260906181143 80 354 1.0 1.0 0.00 0.00 0.00 77 1009.5
20260906180639 80 12 1.0 1.0 0.00 0.00 0.00 77 1009.5
20260906180138 80 325 1.0 1.0 0.00 0.00 0.00 77 1009.4
20260906175636 80 339 1.0 1.0 0.00 0.00 0.00 77 1009.5
20260906175132 80 344 1.0 1.0 0.00 0.00 0.00 77 1009.5
20260906174631 80 340 1.0 2.0 0.00 0.00 0.00 76 1009.3
20260906174126 80 20 2.0 2.0 0.00 0.00 0.00 76 1009.5
20260906173621 80 336 1.0 2.0 0.00 0.00 0.00 76 1009.5
20260906173116 80 355 1.0 3.0 0.00 0.00 0.00 76 1009.4
20260906172616 80 355 2.0 2.0 0.00 0.00 0.00 76 1009.5
20260906172112 80 326 1.0 2.0 0.00 0.00 0.00 75 1009.1
20260906171611 81 354 3.0 3.0 0.00 0.00 0.00 75 1009.3
20260906171107 81 320 2.0 3.0 0.00 0.00 0.00 75 1009.4
20260906170603 81 0 2.0 3.0 0.00 0.00 0.00 75 1009.2
20260906165558 81 343 4.0 5.0 0.00 0.00 0.00 74 1009.0
20260906165052 81 331 3.0 3.0 0.00 0.00 0.00 74 1008.9
20260906164552 81 335 2.0 2.0 0.00 0.00 0.00 74 1008.7
20260906164048 81 308 2.0 2.0 0.00 0.00 0.00 73 1008.8
20260906163543 81 291 3.0 3.0 0.00 0.00 0.00 73 1008.6
20260906163038 81 340 1.0 5.0 0.00 0.00 0.00 73 1008.6
20260906162535 81 348 3.0 5.0 0.00 0.00 0.00 73 1008.8
20260906162031 81 299 2.0 5.0 0.00 0.00 0.00 73 1008.6
20260906161526 81 300 3.0 6.0 0.00 0.00 0.00 72 1008.5
20260906161025 82 356 3.0 6.0 0.00 0.00 0.00 72 1008.3
20260906160524 82 357 4.0 5.0 0.00 0.00 0.00 72 1008.6
20260906160023 82 317 3.0 5.0 0.00 0.00 0.00 72 1008.6
20260906155520 82 336 3.0 3.0 0.00 0.00 0.00 72 1008.5
20260906155017 82 351 1.0 3.0 0.00 0.00 0.00 71 1008.5
20260906154512 82 350 4.0 6.0 0.00 0.00 0.00 71 1008.6
20260906154010 82 292 2.0 5.0 0.00 0.00 0.00 71 1008.4
20260906153509 82 294 6.0 9.0 0.00 0.00 0.00 70 1008.5
20260906153004 82 352 7.0 9.0 0.00 0.00 0.00 69 1008.6
20260906152459 83 303 5.0 7.0 0.00 0.00 0.00 70 1008.4
20260906151958 83 337 7.0 9.0 0.00 0.00 0.00 69 1008.3
20260906151454 84 334 5.0 7.0 0.00 0.00 0.00 68 1008.5
20260906150949 84 313 8.0 11.0 0.00 0.00 0.00 68 1008.3
20260906150444 84 320 6.0 8.0 0.00 0.00 0.00 66 1008.4
20260906145943 84 319 7.0 8.0 0.00 0.00 0.00 66 1008.3
20260906145438 84 317 3.0 6.0 0.00 0.00 0.00 67 1008.3
20260906144932 84 24 7.0 9.0 0.00 0.00 0.00 65 1008.2
20260906144427 85 269 6.0 10.0 0.00 0.00 0.00 64 1008.3
20260906143923 84 303 9.0 11.0 0.00 0.00 0.00 64 1008.2
20260906143418 84 283 5.0 8.0 0.00 0.00 0.00 65 1008.2
20260906142913 85 359 6.0 11.0 0.00 0.00 0.00 64 1008.2
20260906142413 85 207 7.0 11.0 0.00 0.00 0.00 61 1007.9
20260906141914 85 333 9.0 13.0 0.00 0.00 0.00 62 1008.1
20260906141408 85 353 5.0 9.0 0.00 0.00 0.00 63 1008.1
20260906140908 85 297 3.0 8.0 0.00 0.00 0.00 62 1008.0
20260906140402 86 281 6.0 11.0 0.00 0.00 0.00 61 1008.3
20260906135900 85 314 8.0 13.0 0.00 0.00 0.00 59 1007.9
20260906135354 86 244 3.0 6.0 0.00 0.00 0.00 61 1007.9
20260906134850 86 347 13.0 15.0 0.00 0.00 0.00 61 1008.0
20260906134345 86 254 9.0 14.0 0.00 0.00 0.00 61 1008.3
20260906133841 85 283 7.0 11.0 0.00 0.00 0.00 60 1008.1
20260906133336 87 313 6.0 13.0 0.00 0.00 0.00 58 1008.0
20260906132832 86 238 7.0 11.0 0.00 0.00 0.00 58 1008.1
20260906132326 86 43 5.0 10.0 0.00 0.00 0.00 59 1007.9
20260906131822 86 322 6.0 14.0 0.00 0.00 0.00 60 1008.0
20260906131317 86 346 8.0 11.0 0.00 0.00 0.00 59 1007.9
20260906130813 86 267 9.0 13.0 0.00 0.00 0.00 61 1007.9
20260906130313 86 254 5.0 11.0 0.00 0.00 0.00 59 1008.0
20260906125811 87 341 4.0 9.0 0.00 0.00 0.00 60 1008.0
20260906125306 86 281 8.0 13.0 0.00 0.00 0.00 59 1008.0
20260906124758 87 301 8.0 9.0 0.00 0.00 0.00 57 1007.9
20260906124255 87 325 11.0 13.0 0.00 0.00 0.00 55 1008.0
20260906123753 87 333 9.0 11.0 0.00 0.00 0.00 57 1007.9
20260906123248 86 247 3.0 9.0 0.00 0.00 0.00 59 1008.0
20260906122748 86 249 11.0 15.0 0.00 0.00 0.00 55 1007.9
20260906122243 86 352 13.0 17.0 0.00 0.00 0.00 56 1008.0
20260906121740 87 224 6.0 11.0 0.00 0.00 0.00 58 1008.2
20260906121236 86 351 7.0 15.0 0.00 0.00 0.00 59 1007.9
20260906120731 86 266 9.0 11.0 0.00 0.00 0.00 60 1007.9
20260906120228 87 352 6.0 9.0 0.00 0.00 0.00 60 1008.1
20260906115723 87 277 12.0 14.0 0.00 0.00 0.00 58 1008.2
20260906115218 86 337 14.0 15.0 0.00 0.00 0.00 58 1008.1
20260906114717 87 285 6.0 13.0 0.00 0.00 0.00 59 1008.2
20260906114212 85 309 9.0 13.0 0.00 0.00 0.00 59 1008.2
20260906113708 85 333 9.0 14.0 0.00 0.00 0.00 63 1008.2
20260906113207 86 279 11.0 18.0 0.00 0.00 0.00 62 1008.4
20260906112706 86 287 9.0 11.0 0.00 0.00 0.00 63 1008.4
20260906112203 86 346 9.0 17.0 0.00 0.00 0.00 62 1008.2
20260906111703 87 348 12.0 18.0 0.00 0.00 0.00 59 1008.3
20260906111157 86 207 9.0 13.0 0.00 0.00 0.00 61 1008.5
20260906110652 87 310 8.0 11.0 0.00 0.00 0.00 61 1008.4
20260906110142 86 241 7.0 9.0 0.00 0.00 0.00 61 1008.3
20260906105636 86 286 9.0 15.0 0.00 0.00 0.00 63 1008.2
20260906105133 86 249 10.0 13.0 0.00 0.00 0.00 60 1008.4
20260906104631 86 281 8.0 10.0 0.00 0.00 0.00 61 1008.4
20260906104130 86 349 11.0 16.0 0.00 0.00 0.00 59 1008.2
20260906103629 87 347 12.0 17.0 0.00 0.00 0.00 58 1008.2
20260906103124 86 358 6.0 15.0 0.00 0.00 0.00 58 1008.3
20260906102619 88 283 9.0 16.0 0.00 0.00 0.00 57 1008.3
20260906102114 88 286 8.0 18.0 0.00 0.00 0.00 54 1008.3
20260906101614 89 284 9.0 15.0 0.00 0.00 0.00 53 1008.3
20260906101114 88 277 12.0 15.0 0.00 0.00 0.00 50 1008.2
20260906100610 89 277 6.0 8.0 0.00 0.00 0.00 50 1008.1
20260906100110 89 339 11.0 15.0 0.00 0.00 0.00 50 1008.2
20260906095610 89 303 7.0 13.0 0.00 0.00 0.00 51 1008.2
20260906095105 88 235 12.0 14.0 0.00 0.00 0.00 52 1007.9
20260906094604 89 313 7.0 16.0 0.00 0.00 0.00 54 1008.0
20260906094100 89 345 7.0 13.0 0.00 0.00 0.00 51 1008.2
20260906093556 89 338 9.0 14.0 0.00 0.00 0.00 46 1007.9
20260906093051 89 299 4.0 8.0 0.00 0.00 0.00 49 1007.9
20260906092546 88 283 2.0 8.0 0.00 0.00 0.00 51 1008.0
20260906092041 88 266 2.0 9.0 0.00 0.00 0.00 50 1008.2
20260906091536 89 288 7.0 13.0 0.00 0.00 0.00 47 1008.5
20260906091033 89 2 5.0 9.0 0.00 0.00 0.00 45 1008.1
20260906090527 88 351 6.0 8.0 0.00 0.00 0.00 49 1008.2
20260906090022 88 257 9.0 11.0 0.00 0.00 0.00 51 1008.1
20260906085521 88 236 9.0 10.0 0.00 0.00 0.00 52 1008.2
20260906085022 88 240 9.0 11.0 0.00 0.00 0.00 48 1008.0
20260906084521 87 248 3.0 6.0 0.00 0.00 0.00 53 1008.1
20260906084020 88 192 5.0 8.0 0.00 0.00 0.00 56 1008.1
20260906083516 87 236 7.0 8.0 0.00 0.00 0.00 55 1008.3
20260906083015 87 277 5.0 7.0 0.00 0.00 0.00 57 1008.3
20260906082510 88 172 2.0 3.0 0.00 0.00 0.00 56 1008.4
20260906082006 87 186 4.0 5.0 0.00 0.00 0.00 57 1008.4
20260906081502 86 266 4.0 5.0 0.00 0.00 0.00 59 1008.6
20260906080957 85 254 7.0 10.0 0.00 0.00 0.00 56 1008.7
20260906080454 85 213 5.0 7.0 0.00 0.00 0.00 60 1008.7
20260906075949 85 248 2.0 7.0 0.00 0.00 0.00 61 1008.7
20260906075444 85 237 3.0 6.0 0.00 0.00 0.00 62 1008.8
20260906074939 84 233 6.0 10.0 0.00 0.00 0.00 63 1009.1
20260906074438 85 239 9.0 11.0 0.00 0.00 0.00 62 1008.9
20260906073937 85 304 5.0 7.0 0.00 0.00 0.00 61 1008.8
20260906073432 84 257 3.0 6.0 0.00 0.00 0.00 62 1009.0
20260906072928 84 248 7.0 8.0 0.00 0.00 0.00 63 1009.0
20260906072418 85 228 5.0 8.0 0.00 0.00 0.00 64 1009.2
20260906071914 83 275 4.0 6.0 0.00 0.00 0.00 66 1009.3
20260906071409 84 244 5.0 11.0 0.00 0.00 0.00 66 1009.2
20260906070905 83 197 5.0 9.0 0.00 0.00 0.00 67 1009.1
20260906070400 82 249 6.0 8.0 0.00 0.00 0.00 67 1009.2
20260906065851 82 274 6.0 9.0 0.00 0.00 0.00 68 1009.2
20260906065350 83 276 4.0 8.0 0.00 0.00 0.00 69 1009.2
20260906064846 82 285 4.0 9.0 0.00 0.00 0.00 70 1009.2
20260906064337 83 189 6.0 7.0 0.00 0.00 0.00 70 1008.8
20260906063836 82 221 4.0 9.0 0.00 0.00 0.00 71 1009.1
20260906063332 82 234 3.0 7.0 0.00 0.00 0.00 71 1008.6
20260906062827 82 119 1.0 5.0 0.00 0.00 0.00 73 1008.9
20260906062326 81 252 4.0 7.0 0.00 0.00 0.00 73 1009.0
20260906061821 81 276 5.0 11.0 0.00 0.00 0.00 73 1009.0
20260906061312 81 239 3.0 6.0 0.00 0.00 0.00 75 1008.9
20260906060806 81 237 2.0 7.0 0.00 0.00 0.00 76 1008.9
20260906060304 80 240 8.0 10.0 0.00 0.00 0.00 76 1008.6
20260906055800 81 208 3.0 9.0 0.00 0.00 0.00 76 1008.7
20260906055255 80 288 6.0 9.0 0.00 0.00 0.00 77 1008.6
20260906054750 80 185 3.0 10.0 0.00 0.00 0.00 77 1008.7
20260906054246 80 246 4.0 9.0 0.00 0.00 0.00 78 1008.6
20260906053742 80 236 5.0 9.0 0.00 0.00 0.00 78 1008.6
20260906053238 80 239 6.0 9.0 0.00 0.00 0.00 78 1008.6
20260906052732 80 228 3.0 6.0 0.00 0.00 0.00 78 1008.6
20260906052228 79 242 4.0 8.0 0.00 0.00 0.00 79 1008.8
20260906051725 79 195 3.0 8.0 0.00 0.00 0.00 79 1008.7
20260906051224 79 250 4.0 7.0 0.00 0.00 0.00 79 1008.4
20260906050715 79 218 2.0 6.0 0.00 0.00 0.00 80 1008.5
20260906050210 78 241 3.0 6.0 0.00 0.00 0.00 81 1008.5
20260906045708 78 208 2.0 3.0 0.00 0.00 0.00 82 1008.4
20260906045203 78 195 1.0 5.0 0.00 0.00 0.00 82 1008.6
20260906044659 78 215 2.0 5.0 0.00 0.00 0.00 83 1008.5
20260906044154 77 268 4.0 6.0 0.00 0.00 0.00 84 1008.6
20260906043650 77 256 3.0 5.0 0.00 0.00 0.00 84 1008.4
20260906043146 77 163 3.0 3.0 0.00 0.00 0.00 85 1008.9
20260906042645 76 118 0.0 2.0 0.00 0.00 0.00 85 1008.5
20260906042139 76 236 1.0 2.0 0.00 0.00 0.00 85 1008.7
20260906041635 76 193 5.0 6.0 0.00 0.00 0.00 86 1008.5
20260906041129 75 170 1.0 2.0 0.00 0.00 0.00 86 1008.5
20260906040625 74 78 0.0 0.0 0.00 0.00 0.00 87 1008.5
20260906040120 74 40 0.0 0.0 0.00 0.00 0.00 86 1008.6
20260906035615 74 61 0.0 1.0 0.00 0.00 0.00 86 1008.4
20260906035111 74 60 0.0 0.0 0.00 0.00 0.00 87 1008.5
20260906034606 73 75 0.0 0.0 0.00 0.00 0.00 87 1008.5
20260906034101 73 57 0.0 0.0 0.00 0.00 0.00 87 1008.4
20260906033556 73 32 0.0 0.0 0.00 0.00 0.00 87 1008.3
20260906033051 73 27 0.0 0.0 0.00 0.00 0.00 87 1008.3
20260906032548 73 22 0.0 0.0 0.00 0.00 0.00 86 1008.1
20260906032047 73 57 0.0 0.0 0.00 0.00 0.00 87 1008.0
20260906031543 73 39 0.0 0.0 0.00 0.00 0.00 87 1008.1
20260906031039 73 3 0.0 0.0 0.00 0.00 0.00 87 1008.1
20260906030538 73 13 0.0 0.0 0.00 0.00 0.00 86 1008.0
20260906030037 73 48 0.0 0.0 0.00 0.00 0.00 87 1008.3
20260906025532 72 34 0.0 0.0 0.00 0.00 0.00 87 1008.2
20260906025030 73 18 0.0 0.0 0.00 0.00 0.00 86 1008.0
20260906024525 73 31 0.0 0.0 0.00 0.00 0.00 87 1008.1
20260906024019 73 72 0.0 0.0 0.00 0.00 0.00 87 1008.0
20260906023515 73 348 0.0 0.0 0.00 0.00 0.00 86 1008.1
20260906023010 73 50 0.0 0.0 0.00 0.00 0.00 86 1008.0
20260906022506 73 31 0.0 0.0 0.00 0.00 0.00 86 1008.3
20260906022000 73 6 0.0 0.0 0.00 0.00 0.00 86 1008.0
20260906021455 73 60 0.0 0.0 0.00 0.00 0.00 86 1008.0
20260906020950 73 10 0.0 0.0 0.00 0.00 0.00 86 1007.9
20260906020444 73 25 0.0 0.0 0.00 0.00 0.00 86 1008.0
20260906015938 73 41 0.0 0.0 0.00 0.00 0.00 86 1008.0
20260906015432 73 41 0.0 0.0 0.00 0.00 0.00 86 1008.0
20260906014927 73 21 0.0 0.0 0.00 0.00 0.00 86 1008.0
20260906014426 73 81 3.0 3.0 0.00 0.00 0.00 86 1007.8
20260906013922 73 27 0.0 0.0 0.00 0.00 0.00 86 1007.8
20260906013417 73 50 0.0 0.0 0.00 0.00 0.00 86 1007.7
20260906012913 73 50 0.0 0.0 0.00 0.00 0.00 86 1007.7
20260906012408 73 47 0.0 0.0 0.00 0.00 0.00 86 1007.7
20260906011907 73 47 0.0 0.0 0.00 0.00 0.00 86 1007.7
20260906011402 73 40 0.0 0.0 0.00 0.00 0.00 86 1007.8
20260906010858 73 54 0.0 0.0 0.00 0.00 0.00 86 1007.8
20260906010353 73 19 0.0 0.0 0.00 0.00 0.00 85 1007.8
20260906005849 73 38 0.0 0.0 0.00 0.00 0.00 85 1007.9
20260906005348 73 46 0.0 0.0 0.00 0.00 0.00 85 1007.6
20260906004848 73 60 0.0 0.0 0.00 0.00 0.00 85 1007.7
20260906004347 74 38 0.0 0.0 0.00 0.00 0.00 85 1007.7
20260906003842 73 51 0.0 0.0 0.00 0.00 0.00 85 1007.9
20260906003337 74 24 0.0 0.0 0.00 0.00 0.00 85 1007.8
20260906002833 74 99 1.0 1.0 0.00 0.00 0.00 85 1007.7
20260906002332 74 43 0.0 1.0 0.00 0.00 0.00 85 1007.4
20260906001828 74 54 0.0 0.0 0.00 0.00 0.00 85 1007.5
20260906001323 74 68 0.0 2.0 0.00 0.00 0.00 85 1007.7
20260906000818 74 65 0.0 1.0 0.00 0.00 0.00 84 1007.8
20260906000313 74 113 2.0 2.0 0.00 0.00 0.00 84 1007.7
20260905235808 74 52 0.0 1.0 0.00 0.00 0.00 84 1007.9
20260905235308 74 70 1.0 1.0 0.00 0.00 0.00 84 1007.7
20260905234804 74 43 0.0 1.0 0.00 0.00 0.00 84 1007.6
20260905234259 74 36 0.0 0.0 0.00 0.00 0.00 84 1007.7
20260905233754 74 52 0.0 0.0 0.00 0.00 0.00 84 1007.6
20260905233254 75 50 0.0 0.0 0.00 0.00 0.00 84 1007.8
20260905232753 75 92 2.0 2.0 0.00 0.00 0.00 84 1007.7
20260905232249 75 110 0.0 1.0 0.00 0.00 0.00 84 1007.7
20260905231745 75 52 0.0 1.0 0.00 0.00 0.00 84 1007.8
20260905231240 75 68 0.0 1.0 0.00 0.00 0.00 84 1007.9
20260905230736 75 37 0.0 1.0 0.00 0.00 0.00 84 1008.1
20260905230234 75 103 1.0 1.0 0.00 0.00 0.00 84 1007.8
20260905225733 75 89 1.0 2.0 0.00 0.00 0.00 83 1008.0
20260905225228 75 61 0.0 2.0 0.00 0.00 0.00 83 1007.8
20260905224727 75 92 0.0 0.0 0.00 0.00 0.00 83 1008.0
20260905224223 75 40 0.0 0.0 0.00 0.00 0.00 83 1008.1
20260905223720 75 59 0.0 0.0 0.00 0.00 0.00 83 1008.0
20260905223216 75 47 0.0 0.0 0.00 0.00 0.00 83 1008.0
20260905222711 75 48 0.0 0.0 0.00 0.00 0.00 83 1008.0
20260905222210 75 52 0.0 0.0 0.00 0.00 0.00 83 1008.2
20260905221706 75 72 0.0 0.0 0.00 0.00 0.00 83 1008.0
20260905221203 76 45 0.0 0.0 0.00 0.00 0.00 82 1008.2
20260905220659 76 89 1.0 1.0 0.00 0.00 0.00 82 1008.3
20260905220155 76 78 0.0 1.0 0.00 0.00 0.00 82 1008.3
20260905215648 76 64 0.0 1.0 0.00 0.00 0.00 82 1008.4
20260905215144 76 63 0.0 1.0 0.00 0.00 0.00 82 1008.3
20260905214641 76 102 1.0 1.0 0.00 0.00 0.00 82 1008.3